Location: Stavanger
(58.9670°N, 5.7500°E)
Time: 05:58:17
(UTC+02:00)

ISS - Pass Details

Date: 29 March 2019
Orbit: 408 x 410 km, 51.6° (Epoch: 23 April)

Event Time Altitude Azimuth Distance (km) Brightness Sun altitude
Rises 20:03:25 0° 243° (WSW) 2,337 0.8 -7.3°
Reaches altitude 10° 20:05:46 10° 229° (SW) 1,475 -0.6 -7.6°
Maximum altitude 20:08:26 23° 175° (S) 936 -2.2 -7.9°
Enters shadow 20:10:54 11° 123° (ESE) 1,415 -1.7 -8.2°
